N960 KORD-KOSH

Flight info

Callsign N960
Flight time 0h 32m
Altitude 26000
Route RAYNR BRTMN TAAYZ BAE
Aircraft C25C/M-BGS/L

Departure

Time 2026-04-26 20:46
Airport Chicago O'Hare International Airport (KORD)

Arrival

Time 2026-04-26 21:19
Airport Wittman Regional Airport (KOSH)
Time Latitude Longitude Altitude Speed Heading
2026-04-26 20:32 41.99410 -87.89319 652 ft 0 kts 181°
2026-04-26 20:39 41.99400 -87.89308 654 ft 4 kts 96°
2026-04-26 20:39 41.99424 -87.89293 652 ft 0 kts 360°
2026-04-26 20:40 41.99425 -87.89293 652 ft 2 kts 360°
2026-04-26 20:41 41.99476 -87.89369 652 ft 16 kts 289°
2026-04-26 20:41 41.99490 -87.89513 654 ft 16 kts 267°
2026-04-26 20:41 41.99446 -87.89652 657 ft 18 kts 215°
2026-04-26 20:41 41.99336 -87.89726 654 ft 19 kts 209°
2026-04-26 20:42 41.99267 -87.89788 654 ft 5 kts 287°
2026-04-26 20:42 41.99288 -87.89866 655 ft 12 kts 283°
2026-04-26 20:42 41.99251 -87.90003 656 ft 22 kts 221°
2026-04-26 20:42 41.99080 -87.90041 655 ft 27 kts 181°
2026-04-26 20:43 41.98993 -87.90184 657 ft 23 kts 267°
2026-04-26 20:43 41.98997 -87.90414 663 ft 27 kts 270°
2026-04-26 20:43 41.98996 -87.90714 662 ft 37 kts 269°
2026-04-26 20:43 41.98995 -87.91055 658 ft 37 kts 270°
2026-04-26 20:44 41.98994 -87.91396 658 ft 36 kts 270°
2026-04-26 20:44 41.98994 -87.91727 660 ft 34 kts 270°
2026-04-26 20:44 41.98994 -87.92032 666 ft 32 kts 269°
2026-04-26 20:44 41.98992 -87.92302 674 ft 23 kts 267°
2026-04-26 20:45 41.98939 -87.92403 675 ft 0 kts 188°
2026-04-26 20:45 41.98910 -87.92405 674 ft 16 kts 181°
2026-04-26 20:45 41.98832 -87.92353 671 ft 0 kts 95°
2026-04-26 20:45 41.98831 -87.92346 671 ft 0 kts 92°
2026-04-26 20:46 41.98829 -87.92192 670 ft 64 kts 89°
2026-04-26 20:46 41.98829 -87.91137 964 ft 139 kts 90°
2026-04-26 20:46 41.98938 -87.89810 1907 ft 148 kts 73°
2026-04-26 20:47 41.99597 -87.88681 2733 ft 172 kts 44°
2026-04-26 20:47 42.00345 -87.88017 2839 ft 217 kts 32°
2026-04-26 20:47 42.02482 -87.87490 3449 ft 244 kts 356°
2026-04-26 20:47 42.04218 -87.87732 3653 ft 257 kts 354°
2026-04-26 20:48 42.05981 -87.88075 3891 ft 256 kts 352°
2026-04-26 20:48 42.07736 -87.88356 4252 ft 253 kts 356°
2026-04-26 20:48 42.09499 -87.88537 4275 ft 254 kts 357°
2026-04-26 20:48 42.11256 -87.88697 4446 ft 251 kts 358°
2026-04-26 20:49 42.12997 -87.88813 4613 ft 247 kts 358°
2026-04-26 20:49 42.14679 -87.88872 4954 ft 238 kts
2026-04-26 20:49 42.16344 -87.88907 5144 ft 241 kts 360°
2026-04-26 20:49 42.18031 -87.88882 5924 ft 261 kts
2026-04-26 20:50 42.19969 -87.88515 6905 ft 283 kts 15°
2026-04-26 20:50 42.21697 -87.87707 8793 ft 259 kts 22°
2026-04-26 20:50 42.23423 -87.86791 9838 ft 271 kts 22°
2026-04-26 20:50 42.25182 -87.85914 11009 ft 272 kts 19°
2026-04-26 20:51 42.27033 -87.84997 11673 ft 294 kts 21°
2026-04-26 20:51 42.28999 -87.83946 12366 ft 309 kts 22°
2026-04-26 20:51 42.30977 -87.82791 13459 ft 313 kts 24°
2026-04-26 20:51 42.33136 -87.82083 14452 ft 328 kts
2026-04-26 20:52 42.35532 -87.81928 15022 ft 363 kts 359°
2026-04-26 20:52 42.38135 -87.81821 15774 ft 386 kts
2026-04-26 20:52 42.40870 -87.81413 16544 ft 404 kts
2026-04-26 20:52 42.43677 -87.80945 17329 ft 407 kts
2026-04-26 20:53 42.46498 -87.80601 18134 ft 406 kts
2026-04-26 20:53 42.49307 -87.80603 18869 ft 403 kts 354°
2026-04-26 20:53 42.52111 -87.80827 19582 ft 403 kts 354°
2026-04-26 20:53 42.54930 -87.81028 20013 ft 413 kts 354°
2026-04-26 20:54 42.57850 -87.81197 20025 ft 419 kts 355°
2026-04-26 20:54 42.60717 -87.81365 20027 ft 407 kts 354°
2026-04-26 20:54 42.63512 -87.81545 20029 ft 399 kts 354°
2026-04-26 20:54 42.66271 -87.81734 20053 ft 392 kts 354°
2026-04-26 20:55 42.68965 -87.81905 20050 ft 382 kts 354°
2026-04-26 20:55 42.71564 -87.82331 20039 ft 372 kts 340°
2026-04-26 20:55 42.73874 -87.83790 20042 ft 364 kts 324°
2026-04-26 20:55 42.75819 -87.85964 20046 ft 362 kts 316°
2026-04-26 20:56 42.77739 -87.88201 20044 ft 364 kts 316°
2026-04-26 20:56 42.79649 -87.90471 20051 ft 366 kts 316°
2026-04-26 20:56 42.81574 -87.92742 20052 ft 367 kts 316°
2026-04-26 20:56 42.83516 -87.95026 20059 ft 369 kts 316°
2026-04-26 20:57 42.85460 -87.97312 20057 ft 370 kts 316°
2026-04-26 20:57 42.87414 -87.99620 19981 ft 372 kts 316°
2026-04-26 20:57 42.89363 -88.01927 19788 ft 369 kts 316°
2026-04-26 20:57 42.91270 -88.04174 19599 ft 366 kts 316°
2026-04-26 20:58 42.93210 -88.06474 19391 ft 364 kts 316°
2026-04-26 20:58 42.95114 -88.08724 19201 ft 362 kts 316°
2026-04-26 20:58 42.96986 -88.10950 18897 ft 361 kts 316°
2026-04-26 20:58 42.98904 -88.13218 18545 ft 359 kts 316°
2026-04-26 20:59 43.00756 -88.15421 18169 ft 357 kts 316°
2026-04-26 20:59 43.02626 -88.17640 17752 ft 355 kts 315°
2026-04-26 20:59 43.04493 -88.19863 17096 ft 356 kts 316°
2026-04-26 20:59 43.06359 -88.22083 16457 ft 355 kts 315°
2026-04-26 21:00 43.08213 -88.24290 15931 ft 352 kts 316°
2026-04-26 21:00 43.10050 -88.26482 15437 ft 349 kts 315°
2026-04-26 21:00 43.11872 -88.28652 14951 ft 346 kts 315°
2026-04-26 21:00 43.13678 -88.30815 14471 ft 345 kts 315°
2026-04-26 21:01 43.15486 -88.32970 13998 ft 343 kts 315°
2026-04-26 21:01 43.17281 -88.35123 13478 ft 342 kts 315°
2026-04-26 21:01 43.19074 -88.37264 12956 ft 342 kts 316°
2026-04-26 21:01 43.20865 -88.39408 12438 ft 341 kts 317°
2026-04-26 21:02 43.22982 -88.40882 11915 ft 348 kts 344°
2026-04-26 21:02 43.25383 -88.41376 11443 ft 348 kts 353°
2026-04-26 21:02 43.27788 -88.41639 11076 ft 345 kts 355°
2026-04-26 21:02 43.30171 -88.41825 10702 ft 342 kts 356°
2026-04-26 21:03 43.32537 -88.42000 10341 ft 340 kts 356°
2026-04-26 21:03 43.34889 -88.42182 9979 ft 338 kts 356°
2026-04-26 21:03 43.37236 -88.42364 9596 ft 337 kts 356°
2026-04-26 21:03 43.39569 -88.42561 9205 ft 336 kts 356°
2026-04-26 21:04 43.41901 -88.42764 8822 ft 335 kts 356°
2026-04-26 21:04 43.44221 -88.42975 8446 ft 334 kts 356°
2026-04-26 21:04 43.46537 -88.43196 8067 ft 333 kts 356°
2026-04-26 21:04 43.48763 -88.43414 7738 ft 303 kts 356°
2026-04-26 21:05 43.50728 -88.43619 7399 ft 267 kts 356°
2026-04-26 21:05 43.52504 -88.43810 7035 ft 247 kts 356°
2026-04-26 21:05 43.54174 -88.44003 6680 ft 235 kts 356°
2026-04-26 21:05 43.55779 -88.44200 6297 ft 229 kts 356°
2026-04-26 21:06 43.57348 -88.44399 5904 ft 224 kts 356°
2026-04-26 21:06 43.58894 -88.44599 5539 ft 224 kts 357°
2026-04-26 21:06 43.60472 -88.44810 5154 ft 229 kts 356°
2026-04-26 21:06 43.62053 -88.45001 4796 ft 228 kts 357°
2026-04-26 21:07 43.63647 -88.45219 4380 ft 231 kts 355°
2026-04-26 21:07 43.65219 -88.45436 4005 ft 224 kts 357°
2026-04-26 21:07 43.66757 -88.45647 3629 ft 221 kts 356°
2026-04-26 21:07 43.68282 -88.45883 3255 ft 218 kts 356°
2026-04-26 21:08 43.69750 -88.46121 3089 ft 207 kts 355°
2026-04-26 21:08 43.70681 -88.46142 2987 ft 196 kts
2026-04-26 21:08 43.72001 -88.45916 2974 ft 184 kts 11°
2026-04-26 21:08 43.73227 -88.45731 2995 ft 173 kts 11°
2026-04-26 21:09 43.74405 -88.45559 2992 ft 166 kts 11°
2026-04-26 21:09 43.75545 -88.45409 2998 ft 162 kts 11°
2026-04-26 21:09 43.76665 -88.45259 2991 ft 161 kts 11°
2026-04-26 21:09 43.78265 -88.45040 2999 ft 195 kts 12°
2026-04-26 21:10 43.79223 -88.44880 3013 ft 215 kts 11°
2026-04-26 21:10 43.80775 -88.44618 3015 ft 231 kts 11°
2026-04-26 21:10 43.82399 -88.44323 3006 ft 239 kts 11°
2026-04-26 21:10 43.84069 -88.44024 3013 ft 244 kts 11°
2026-04-26 21:11 43.85770 -88.43705 3010 ft 249 kts 11°
2026-04-26 21:11 43.87459 -88.43406 3057 ft 246 kts 11°
2026-04-26 21:11 43.89139 -88.43105 3084 ft 244 kts 11°
2026-04-26 21:11 43.90821 -88.42798 3120 ft 241 kts 11°
2026-04-26 21:12 43.92467 -88.42502 3221 ft 233 kts 11°
2026-04-26 21:12 43.94067 -88.42201 3250 ft 232 kts 12°
2026-04-26 21:12 43.95641 -88.41848 3279 ft 227 kts 13°
2026-04-26 21:12 43.97165 -88.41485 3280 ft 223 kts 13°
2026-04-26 21:13 43.98657 -88.41215 3491 ft 210 kts 10°
2026-04-26 21:13 44.00173 -88.40953 3157 ft 226 kts 11°
2026-04-26 21:13 44.01726 -88.40686 3065 ft 222 kts 11°
2026-04-26 21:13 44.03237 -88.40397 3088 ft 213 kts 12°
2026-04-26 21:14 44.04695 -88.40090 3117 ft 209 kts 13°
2026-04-26 21:14 44.06123 -88.39776 3174 ft 206 kts
2026-04-26 21:14 44.07495 -88.40204 3247 ft 209 kts 330°
2026-04-26 21:14 44.08415 -88.41767 3146 ft 214 kts 289°
2026-04-26 21:15 44.08615 -88.43820 2984 ft 217 kts 269°
2026-04-26 21:15 44.08690 -88.45934 3001 ft 218 kts 269°
2026-04-26 21:15 44.08754 -88.48035 3011 ft 218 kts 269°
2026-04-26 21:15 44.08736 -88.50134 3054 ft 211 kts 256°
2026-04-26 21:16 44.08120 -88.51948 2884 ft 207 kts 225°
2026-04-26 21:16 44.07078 -88.53264 2737 ft 184 kts 214°
2026-04-26 21:16 44.06185 -88.54150 2495 ft 142 kts 205°
2026-04-26 21:16 44.05346 -88.54753 2083 ft 131 kts 196°
2026-04-26 21:17 44.04476 -88.55096 1679 ft 125 kts 188°
2026-04-26 21:17 44.03669 -88.55404 1528 ft 117 kts 186°
2026-04-26 21:17 44.02886 -88.55545 1434 ft 112 kts 177°
2026-04-26 21:17 44.02111 -88.55615 1324 ft 109 kts 176°
2026-04-26 21:18 44.01358 -88.55622 1202 ft 106 kts 169°
2026-04-26 21:18 44.00613 -88.55635 1167 ft 110 kts 175°
2026-04-26 21:18 43.99864 -88.55642 1031 ft 107 kts 178°
2026-04-26 21:18 43.99114 -88.55638 914 ft 109 kts 177°
2026-04-26 21:19 43.98400 -88.55641 794 ft 94 kts 181°
2026-04-26 21:19 43.97962 -88.55652 796 ft 39 kts 183°
2026-04-26 21:19 43.97892 -88.55772 797 ft 6 kts 271°
2026-04-26 21:19 43.97893 -88.55778 797 ft 3 kts 272°
2026-04-26 21:20 43.97894 -88.55883 797 ft 18 kts 270°
2026-04-26 21:20 43.97918 -88.56026 799 ft 0 kts 277°